Location: Clanezzo
(45.7500°N, 9.6000°E)
Time: 09:03:39
(UTC+00:00)

STARS - Pass Details

Date: 09 July 2022
Orbit: 620 x 637 km, 98.2° (Epoch: 14 August)

Event Time Altitude Azimuth Distance (km) Brightness Sun altitude
Rises 23:40:52 0° 355° (N) 2,925 ? -21.9°
Reaches altitude 10° 23:44:11 10° 328° (NNW) 2,008 ? -21.9°
Maximum altitude 23:46:09 13° 301° (WNW) 1,810 ? -21.8°
Drops below altitude 10° 23:48:07 10° 274° (W) 1,998 ? -21.8°
Enters shadow 23:49:00 - 264° (W) 2,186 ? -21.8°
